Date String (YYYY-MM-DD hh:mm:ss) UTC,Instrument flags,absolute air pressure of the measurement (hPa),sample flow rate (lpm),inlet stack bypass flow (lpm),air temperature of the measurement (°C),ambient temperature measured by the external sensor (°C),aerosol sample conditioner tube jacket temperature (°C),OPC LED temperature (°C),internal box temperature (°C),relative humidity of the measurement (%),span deviation,mass concentration of particles derived from Lorenz-Mie calculation of OPC scattering (μg/m³),mass concentration of particles derived from Lorenz-Mie calculation of OPC scattering (μg/m³),mass concentration of particles derived from Lorenz-Mie calculation of OPC scattering (μg/m³)
DateTimeUTC,F1_M11,P_M11,Q1_M11,Q2_M11,T1_M11,T2_M11,T3_M11,T4_M11,T5_M11,U1_M11,ZSPAN_M11,X0_M11,X2_M11,X1_M11
2024-05-20 05:00:00,SystemResetWarning,0825.7,5.00,000.00,024.8,024.4,000.0,032.7,026.7,022.2,0000.0,0008.63,0003.07,0001.96
2024-05-20 05:01:00,SystemResetWarning,0825.7,4.99,000.00,024.9,024.4,000.0,032.8,026.7,022.1,0000.0,0008.66,0003.04,0001.94
2024-05-20 05:02:00,SystemResetWarning,0825.7,5.00,000.00,024.8,023.1,000.0,032.9,026.0,022.3,0000.0,0008.07,0003.08,0001.95
2024-05-20 05:03:00,SystemResetWarning,0825.6,5.00,000.00,024.4,021.6,000.0,032.9,025.2,022.8,0000.0,0008.28,0003.08,0001.93
2024-05-20 05:04:00,SystemResetWarning,0825.6,5.00,000.00,024.2,021.6,000.0,032.9,025.1,023.1,0000.0,0008.49,0003.09,0001.90
2024-05-20 05:05:00,SystemResetWarning,0825.6,5.01,000.00,024.1,021.9,000.0,032.7,025.3,023.2,0000.0,0008.55,0003.05,0001.88
2024-05-20 05:06:00,SystemResetWarning,0825.6,4.99,000.00,024.1,022.3,000.0,032.6,025.5,023.3,0000.0,0008.54,0002.97,0001.86
2024-05-20 05:07:00,SystemResetWarning,0825.6,5.00,000.00,024.2,022.6,000.0,032.6,025.7,023.2,0000.0,0008.53,0002.96,0001.86
2024-05-20 05:08:00,SystemResetWarning,0825.6,5.00,000.00,024.2,022.9,000.0,032.5,025.9,023.1,0000.0,0008.08,0002.83,0001.85
2024-05-20 05:09:00,SystemResetWarning,0825.6,5.00,000.00,024.2,023.1,000.0,032.5,026.0,023.0,0000.0,0006.47,0002.77,0001.85
2024-05-20 05:10:00,SystemResetWarning,0825.6,5.00,000.00,024.3,023.3,000.0,032.5,026.1,022.9,0000.0,0006.33,0002.75,0001.86
2024-05-20 05:11:00,SystemResetWarning,0825.6,4.98,000.00,024.3,023.5,000.0,032.5,026.2,022.9,0000.0,0006.49,0002.77,0001.86
2024-05-20 05:12:00,SystemResetWarning,0825.6,5.00,000.00,024.4,023.7,000.0,032.5,026.3,022.9,0000.0,0007.53,0002.83,0001.88
2024-05-20 05:13:00,SystemResetWarning,0825.6,5.01,000.00,024.5,023.8,000.0,032.5,026.3,022.9,0000.0,0008.03,0002.75,0001.87
2024-05-20 05:14:00,SystemResetWarning,0825.7,5.01,000.00,024.5,023.9,000.0,032.6,026.4,022.8,0000.0,0007.81,0002.68,0001.88
2024-05-20 05:15:00,SystemResetWarning,0825.7,5.00,000.00,024.6,024.0,000.0,032.6,026.4,022.6,0000.0,0007.50,0002.66,0001.89
2024-05-20 05:16:00,SystemResetWarning,0825.7,5.00,000.00,024.6,024.1,000.0,032.6,026.5,022.5,0000.0,0007.55,0002.73,0001.88
2024-05-20 05:17:00,SystemResetWarning,0825.7,5.00,000.00,024.7,024.2,000.0,032.6,026.6,022.5,0000.0,0007.44,0002.75,0001.87
2024-05-20 05:18:00,SystemResetWarning,0825.8,4.99,000.00,024.7,024.2,000.0,032.7,026.6,022.3,0000.0,0007.42,0002.74,0001.88
2024-05-20 05:19:00,SystemResetWarning,0825.8,5.00,000.00,024.8,024.3,000.0,032.7,026.6,022.3,0000.0,0008.01,0002.80,0001.89
2024-05-20 05:20:00,SystemResetWarning,0825.9,5.00,000.00,024.8,024.4,000.0,032.7,026.7,022.3,0000.0,0008.40,0002.94,0001.93
2024-05-20 05:21:00,SystemResetWarning,0825.9,5.01,000.00,024.9,024.4,000.0,032.8,026.7,022.2,0000.0,0008.49,0003.03,0001.95
2024-05-20 05:22:00,SystemResetWarning,0825.9,5.00,000.00,024.9,024.5,000.0,032.8,026.8,022.1,0000.0,0008.80,0003.07,0001.96
2024-05-20 05:23:00,SystemResetWarning,0825.9,5.00,000.00,025.0,024.5,000.0,032.8,026.8,022.1,0000.0,0008.17,0003.04,0001.97
2024-05-20 05:24:00,SystemResetWarning,0825.9,4.99,000.00,025.0,024.0,000.0,032.9,026.6,022.0,0000.0,0007.74,0003.09,0001.98
2024-05-20 05:25:00,SystemResetWarning,0825.9,5.00,000.00,024.6,021.9,000.0,033.0,025.4,022.3,0000.0,0007.61,0003.09,0001.98
2024-05-20 05:26:00,SystemResetWarning,0825.9,5.01,000.00,024.3,021.5,000.0,033.0,025.1,022.7,0000.0,0007.83,0003.10,0001.99
2024-05-20 05:27:00,SystemResetWarning,0825.8,4.99,000.00,024.2,021.7,000.0,032.9,025.1,022.9,0000.0,0007.90,0003.06,0002.02
2024-05-20 05:28:00,SystemResetWarning,0825.9,4.99,000.00,024.1,022.1,000.0,032.7,025.4,023.1,0000.0,0007.87,0003.05,0002.04
2024-05-20 05:29:00,SystemResetWarning,0825.9,5.01,000.00,024.2,022.5,000.0,032.7,025.6,023.1,0000.0,0007.86,0003.07,0002.05
2024-05-20 05:30:00,SystemResetWarning,0825.8,5.00,000.00,024.2,022.8,000.0,032.6,025.8,023.1,0000.0,0007.70,0003.08,0002.06
2024-05-20 05:31:00,SystemResetWarning,0825.8,4.99,000.00,024.2,023.0,000.0,032.6,026.0,023.1,0000.0,0006.93,0003.06,0002.05
2024-05-20 05:32:00,SystemResetWarning,0825.8,5.01,000.00,024.3,023.3,000.0,032.6,026.1,023.1,0000.0,0006.91,0002.97,0002.05
2024-05-20 05:33:00,SystemResetWarning,0825.9,5.00,000.00,024.4,023.5,000.0,032.6,026.2,023.3,0000.0,0007.24,0002.94,0002.05
2024-05-20 05:34:00,SystemResetWarning,0825.9,5.00,000.00,024.4,023.6,000.0,032.6,026.2,023.4,0000.0,0007.16,0003.04,0002.07
2024-05-20 05:35:00,SystemResetWarning,0825.9,5.01,000.00,024.5,023.8,000.0,032.6,026.3,023.3,0000.0,0007.17,0003.09,0002.09
2024-05-20 05:36:00,SystemResetWarning,0825.9,5.01,000.00,024.5,023.9,000.0,032.6,026.4,023.1,0000.0,0007.32,0003.10,0002.09
2024-05-20 05:37:00,SystemResetWarning,0825.9,5.01,000.00,024.6,024.0,000.0,032.6,026.4,023.1,0000.0,0007.51,0003.10,0002.11
2024-05-20 05:38:00,SystemResetWarning,0825.9,4.99,000.00,024.6,024.1,000.0,032.7,026.5,023.1,0000.0,0006.71,0003.10,0002.11
2024-05-20 05:39:00,SystemResetWarning,0825.9,4.99,000.00,024.7,024.2,000.0,032.7,026.6,023.0,0000.0,0006.79,0003.13,0002.12
2024-05-20 05:40:00,SystemResetWarning,0825.9,5.00,000.00,024.7,024.2,000.0,032.7,026.6,022.9,0000.0,0006.85,0003.13,0002.13
2024-05-20 05:41:00,SystemResetWarning,0825.9,5.01,000.00,024.8,024.3,000.0,032.8,026.7,022.9,0000.0,0007.29,0003.12,0002.13
2024-05-20 05:42:00,SystemResetWarning,0825.9,4.99,000.00,024.8,024.4,000.0,032.8,026.7,022.8,0000.0,0007.43,0003.09,0002.14
2024-05-20 05:43:00,SystemResetWarning,0825.9,5.01,000.00,024.9,024.4,000.0,032.8,026.8,022.6,0000.0,0007.41,0003.09,0002.14
2024-05-20 05:44:00,SystemResetWarning,0825.9,5.00,000.00,024.9,024.5,000.0,032.9,026.8,022.6,0000.0,0006.97,0003.10,0002.15
2024-05-20 05:45:00,SystemResetWarning,0825.9,5.01,000.00,025.0,024.5,000.0,032.9,026.8,022.5,0000.0,0006.43,0003.05,0002.15
2024-05-20 05:46:00,SystemResetWarning,0825.9,5.00,000.00,025.0,024.5,000.0,033.0,026.8,022.4,0000.0,0007.00,0003.02,0002.14
2024-05-20 05:47:00,SystemResetWarning,0825.9,4.98,000.00,024.8,022.7,000.0,033.0,025.9,022.7,0000.0,0007.32,0003.03,0002.14
2024-05-20 05:48:00,SystemResetWarning,0825.9,5.02,000.00,024.4,021.5,000.0,033.1,025.1,023.0,0000.0,0007.32,0003.12,0002.23
2024-05-20 05:49:00,SystemResetWarning,0825.9,5.00,000.00,024.2,021.6,000.0,033.0,025.1,023.3,0000.0,0007.44,0003.22,0002.31
2024-05-20 05:50:00,SystemResetWarning,0825.9,4.99,000.00,024.2,022.0,000.0,032.9,025.3,023.4,0000.0,0007.50,0003.23,0002.37
2024-05-20 05:51:00,SystemResetWarning,0825.9,4.99,000.00,024.2,022.4,000.0,032.8,025.5,023.4,0000.0,0007.58,0003.25,0002.42
2024-05-20 05:52:00,SystemResetWarning,0825.9,5.01,000.00,024.2,022.7,000.0,032.7,025.7,024.2,0000.0,0007.57,0003.32,0002.49
2024-05-20 05:53:00,SystemResetWarning,0825.9,5.00,000.00,024.2,023.0,000.0,032.7,025.9,024.2,0000.0,0008.23,0003.45,0002.67
2024-05-20 05:54:00,SystemResetWarning,0825.9,5.02,000.00,024.3,023.2,000.0,032.6,026.0,023.7,0000.0,0008.82,0003.58,0002.87
2024-05-20 05:55:00,SystemResetWarning,0825.9,4.99,000.00,024.3,023.4,000.0,032.6,026.1,023.7,0000.0,0009.41,0003.66,0003.00
2024-05-20 05:56:00,SystemResetWarning,0825.9,4.99,000.00,024.4,023.6,000.0,032.6,026.2,023.6,0000.0,0009.44,0003.72,0003.11
2024-05-20 05:57:00,SystemResetWarning,0825.9,5.00,000.00,024.4,023.7,000.0,032.6,026.3,023.7,0000.0,0009.55,0003.80,0003.17
2024-05-20 05:58:00,SystemResetWarning,0825.9,5.01,000.00,024.5,023.8,000.0,032.7,026.3,023.9,0000.0,0009.45,0003.90,0003.25
2024-05-20 05:59:00,SystemResetWarning,0826.0,4.99,000.00,024.5,024.0,000.0,032.7,026.4,024.1,0000.0,0009.46,0004.01,0003.33
